Volver al catálogo

STARLINK-4634

ActivoComunicacionesVLEO
NORAD 53967·PAYLOAD·🇺🇸 United States

Lanzado Oct 5, 2022 desde Vandenberg Space Force Base

Loading…

Próximos Pases (próximas 24 horas)

TLE

ActualizadoSource: CelesTrak SupGP

Época: Sep 14, 2026, 13:49 UTC

1 53967C 22125D   26257.57618056  .00003203  00000+0  94625-4 0  2576
2 53967  53.1579  89.2509 0001155  94.7960  42.4260 15.34391142    14

Sigue STARLINK-4634 en tiempo real con AllMySat

Download on the App Store